EcAMSat (43019 NORAD) Tracking and Keplerian Element Data

This shows tracking and keplerian element data for the satellite.

Feedback or suggestion? Click here.




ElementValue
Catalog43019
NameEcAMSat
Epoch Orbit25163
Epoch Day289.58180756
Epoch Year2020
RAAN40.8318
Inclination51.6415
Eccentricity0.0003089
Argument of Perigee136.2131
Mean Anonmoly223.9111
Mean Motion15.68358622
Decay Rate0.00010761
L11 43019U 98067NG 20289.58180756 .00010761 00000-0 98695-4 0 9994
L22 43019 51.6415 40.8318 0003089 136.2131 223.9111 15.68358622251634

Live tracking and technical data element details for EcAMSat (NORAD 43019). EcAMSat can be tracked NOW for your location showing map with azimuth and elevation plus other details from your city location.

Track the satellite on the map from your city or location and see movement details for azimuth, elevation, latitude, longitude, range, height, and movement on the map or in text.







IsCatalogInMostPopularTable: catalog: 43019, numindb: 442
Update: records affected: 1



GetName: 43019 EcAMSat

Hit Count: updated at: Tue, 20 Oct 2020 16:43:09 GMT